Meteo Giornale » Osservazioni meteo Azerbaijan » Baku-Bine
ore: 22:30 - Osservazioni Meteo Baku-Bine
Lat. 40° 27' N Lon. 50° 4' E Alt. -6 metri s.l.m.
22 °C
Sereno
Temp. 24 Ore
20 °C
26 °C
Nord-Ovest
11.1 Km/h
Dew point 15 °C
Umidità 64 %
Visibilità 10 Km
Il sole sorge alle ore 06:07
Il sole tramonta alle ore 19:10
| Data e Ora | Cielo e Fenomeni | T °C | DP °C | Um. % | Pres. hPa | Vis. km | Vento km/h | |
|---|---|---|---|---|---|---|---|---|
| Oggi h: 22:30 | Sereno | 22 | 15 | 64 | 1017 | 10 | NO 11.1 | |
| Oggi h: 22:00 | Sereno | 22 | 15 | 64 | 1017 | 10 | NO 7.4 | |
| Oggi h: 21:30 | Sereno | 22 | 15 | 64 | 1017 | 10 | N/NO 11.1 | |
| Oggi h: 21:00 | Sereno | 22 | 14 | 60 | 1017 | 10 | N/NO 14.8 | |
| Oggi h: 20:30 | Sereno | 22 | 14 | 60 | 1016 | 10 | N 14.8 | |
| Oggi h: 20:00 | Sereno | 23 | 15 | 60 | 1016 | 10 | N 14.8 | |
| Oggi h: 19:30 | Sereno | 23 | 14 | 56 | 1016 | 10 | N 14.8 | |
| Oggi h: 19:00 | Sereno | 23 | 14 | 56 | 1016 | 10 | N 18.5 | |
| Oggi h: 18:30 | Sereno | 24 | 15 | 57 | 1016 | 10 | N 22.2 | |
| Oggi h: 18:00 | Sereno | 25 | 15 | 53 | 1016 | 10 | N 22.2 | |
| Oggi h: 17:30 | Sereno | 25 | 14 | 50 | 1016 | 10 | N 22.2 | |
| Oggi h: 17:00 | Sereno | 25 | 14 | 50 | 1016 | 10 | N/NE 25.9 | |
| Oggi h: 16:30 | Sereno | 26 | 13 | 44 | 1016 | 10 | N 25.9 | |
| Oggi h: 16:00 | Sereno | 26 | 14 | 47 | 1016 | 10 | N/NE 22.2 | |
| Oggi h: 15:30 | Sereno | 26 | 14 | 47 | 1016 | 10 | N/NE 22.2 | |
| Oggi h: 15:00 | Sereno | 26 | 14 | 47 | 1016 | 10 | N 25.9 | |
| Oggi h: 14:30 | Sereno | 26 | 14 | 47 | 1016 | 10 | N/NE 22.2 | |
| Oggi h: 14:00 | Sereno | 26 | 13 | 44 | 1016 | 10 | N 25.9 | |
| Oggi h: 13:30 | Sereno | 26 | 14 | 47 | 1016 | 10 | N 22.2 | |
| Oggi h: 13:00 | Sereno | 26 | 16 | 54 | 1016 | 10 | N 25.9 | |
| Oggi h: 12:30 | Sereno | 26 | 15 | 50 | 1016 | 10 | N 22.2 | |
| Oggi h: 12:00 | Sereno | 26 | 15 | 50 | 1016 | 10 | N 25.9 | |
| Oggi h: 11:30 | Sereno | 26 | 15 | 50 | 1016 | 10 | N/NO 22.2 | |
| Oggi h: 11:00 | Sereno | 26 | 15 | 50 | 1016 | 10 | N 22.2 | |
| Oggi h: 10:30 | Sereno | 25 | 16 | 57 | 1016 | 10 | N 22.2 | |
| Oggi h: 10:00 | Sereno | 25 | 16 | 57 | 1016 | 10 | N 22.2 | |
| Oggi h: 09:30 | Sereno | 24 | 17 | 64 | 1016 | 10 | N 18.5 | |
| Oggi h: 09:00 | Sereno | 24 | 17 | 64 | 1016 | 10 | N 18.5 | |
| Oggi h: 08:30 | Sereno | 25 | 17 | 61 | 1016 | 10 | N 14.8 | |
| Oggi h: 08:00 | Sereno | 24 | 17 | 64 | 1016 | 10 | N 18.5 | |
| Oggi h: 07:30 | Sereno | 22 | 18 | 78 | 1016 | 10 | NO 11.1 | |
| Oggi h: 07:00 | Sereno | 22 | 18 | 78 | 1016 | 10 | N/NO 14.8 | |
| Oggi h: 06:30 | Sereno | 22 | 18 | 78 | 1016 | 10 | N/NO 11.1 | |
| Oggi h: 06:00 | Sereno | 22 | 18 | 78 | 1016 | 10 | N/NO 11.1 | |
| Oggi h: 05:30 | Sereno | 21 | 17 | 77 | 1016 | 10 | N/NO 14.8 | |
| Oggi h: 05:00 | Sereno | 20 | 17 | 82 | 1015 | 10 | N/NO 11.1 | |
| Oggi h: 04:30 | Sereno | 21 | 17 | 77 | 1015 | 10 | N 14.8 | |
| Oggi h: 04:00 | Sereno | 20 | 17 | 82 | 1015 | 10 | N/NO 14.8 | |
| Oggi h: 03:30 | Sereno | 21 | 17 | 77 | 1015 | 10 | N/NO 14.8 | |
| Oggi h: 03:00 | Sereno | 21 | 17 | 77 | 1015 | 10 | N/NO 14.8 | |
| Oggi h: 02:30 | Sereno | 21 | 17 | 77 | 1015 | 10 | N/NO 14.8 | |
| Oggi h: 02:00 | Sereno | 21 | 17 | 77 | 1016 | 10 | N/NO 14.8 | |
| Oggi h: 01:30 | Sereno | 21 | 17 | 77 | 1016 | 10 | N/NO 14.8 | |
| Oggi h: 01:00 | Sereno | 21 | 17 | 77 | 1016 | 10 | N 14.8 | |
| Oggi h: 00:30 | Sereno | 22 | 16 | 68 | 1016 | 10 | N/NO 18.5 | |
| Oggi h: 00:00 | Sereno | 22 | 16 | 68 | 1016 | 10 | N 22.2 | |



